Wind_Speed
10 10 9 9 9 9 9 8 8 8 9 9 8 7 7 7 7 7 8 8 9 9 9 9 9 9 9 9 10 10 10 10 10 11 11 11 11 11 12 12 12 12 13 13
10 10 9 9 9 9 9 9 9 9 9 10 9 8 7 8 9 9 9 9 10 11 10 10 9 9 10 10 10 10 11 11 11 11 11 11 11 11 12 12 12 13 13 13
10 9 9 9 10 10 9 9 9 10 10 10 10 9 8 9 10 10 9 9 10 11 11 12 11 11 10 10 11 11 11 11 11 11 11 11 12 12 12 12 12 12 12 12
8 8 8 9 9 9 9 9 10 10 10 10 10 9 8 9 10 10 9 9 10 11 12 12 12 12 12 12 12 12 13 12 12 12 12 12 12 12 12 12 12 12 12 12
8 8 8 8 8 9 9 10 10 10 11 11 11 12 9 10 11 10 10 10 10 11 12 13 13 13 13 14 14 14 14 14 13 13 13 13 13 13 13 13 13 13 13 13
9 9 9 9 9 9 10 10 11 12 12 12 11 12 10 10 11 11 10 10 11 12 13 14 13 14 15 15 15 15 15 15 14 14 14 14 14 14 14 14 14 14 14 14
10 9 10 10 10 10 11 11 12 13 13 13 12 13 11 11 12 11 11 11 11 12 13 14 14 14 15 15 16 16 16 15 15 15 16 16 15 16 15 15 15 15 15 15
11 10 11 11 11 11 11 13 14 15 15 14 13 14 12 13 13 13 12 12 12 12 13 13 13 14 15 16 16 17 17 16 16 16 16 17 17 17 17 17 16 16 16 16
11 11 11 12 12 12 12 13 13 15 16 16 15 14 14 14 14 14 13 13 13 13 14 13 13 15 16 17 16 16 16 17 17 17 17 17 18 18 18 18 18 17 17 17
12 12 12 12 13 13 13 14 15 16 17 16 16 15 15 15 15 15 14 14 14 14 14 15 16 16 16 17 17 17 18 18 18 18 18 18 19 19 19 19 19 19 19 18
13 13 13 14 15 15 15 15 15 16 17 18 17 16 15 16 17 17 17 17 17 16 16 17 17 17 17 18 18 18 18 18 19 19 19 20 20 20 20 20 20 20 20 19
15 15 14 15 16 16 15 16 16 17 19 19 19 17 16 18 18 19 19 18 19 19 18 18 18 18 18 19 19 19 20 20 20 21 21 21 21 21 21 21 20 21 21 21
16 16 16 16 17 17 16 16 18 19 20 20 20 19 19 20 20 20 19 19 19 19 19 19 19 18 18 19 20 20 20 21 21 22 22 22 22 22 22 21 22 22 22 22
17 18 18 18 18 19 18 18 18 19 20 20 20 20 20 21 21 21 21 20 20 20 19 19 19 19 19 21 21 21 22 22 23 24 24 24 24 24 24 24 23 23 23 23
18 19 19 19 19 20 20 20 19 20 20 22 21 21 21 22 21 21 21 21 21 20 20 20 19 20 21 22 22 23 24 24 25 25 25 25 25 25 26 26 25 25 25 25
19 19 20 20 20 21 21 20 20 20 20 22 22 22 22 22 21 21 21 21 22 22 22 21 21 21 22 23 24 25 25 25 26 26 26 27 26 27 27 26 26 26 26 26
20 20 20 20 21 21 21 20 21 22 22 22 21 21 21 22 23 23 23 22 22 23 23 23 23 23 23 24 24 26 26 27 27 27 27 27 27 27 28 27 28 27 27 26
20 21 21 21 21 22 20 21 22 23 23 23 23 22 21 22 23 23 23 23 23 24 24 24 24 24 24 25 26 27 27 28 28 28 28 28 28 28 28 28 28 29 28 27
19 20 20 21 21 22 20 20 21 22 23 23 23 24 23 23 23 24 24 24 24 24 25 25 25 26 26 27 28 28 28 28 28 29 29 29 30 30 30 29 29 29 29 28
19 20 20 21 21 22 21 21 21 23 23 23 23 23 24 25 25 24 25 25 26 26 26 26 26 27 27 28 28 29 28 29 29 30 30 30 31 31 31 31 31 30 29 29
20 20 21 21 22 23 22 22 23 24 24 24 23 23 24 26 26 25 25 27 28 28 27 27 27 28 29 29 28 28 29 29 29 30 30 30 31 31 31 31 31 31 31 31
21 21 22 22 23 23 23 24 24 24 25 25 25 25 25 27 27 27 27 27 28 29 29 29 29 29 29 30 30 30 30 30 31 31 31 31 31 31 31 32 32 32 32 32
22 23 23 23 24 25 25 25 25 26 26 27 27 27 28 28 29 30 31 31 30 30 31 31 31 31 31 31 32 32 32 32 32 31 31 31 31 31 31 32 32 32 32 33
23 24 25 26 26 26 26 27 27 28 28 29 29 30 31 30 30 30 31 31 32 32 32 32 33 33 33 33 34 34 35 35 34 33 33 32 32 32 32 32 33 32 32 33
25 25 26 26 26 27 27 28 29 29 30 30 31 32 32 33 33 32 32 32 32 33 34 34 34 34 35 35 36 36 36 36 36 36 35 34 34 33 33 33 34 34 34 34
26 27 27 27 28 29 29 30 30 30 30 31 32 33 33 33 33 33 34 34 34 34 35 35 36 36 36 36 36 37 38 38 37 36 36 35 35 34 34 34 34 34 35 35
Wind_Direction
253 254 255 257 255 250 248 246 250 253 260 262 264 266 266 270 268 267 263 263 264 265 263 263 263 269 273 276 278 281 282 283 281 275 273 274 276 278 281 283 284 283 284 286
251 254 257 256 253 252 254 259 258 259 260 261 265 268 269 272 271 272 271 269 266 265 267 269 271 273 276 278 277 279 281 282 282 279 276 274 274 276 280 281 283 284 285 286
253 256 256 254 251 254 261 266 263 259 258 263 270 269 271 272 270 269 271 273 271 270 270 271 272 272 274 277 277 277 278 278 279 279 279 277 276 278 279 281 283 285 285 287
253 257 258 257 256 257 264 266 261 259 262 262 268 273 266 267 266 269 272 274 272 271 270 271 270 267 270 273 274 274 273 274 275 275 276 277 277 277 278 281 283 284 286 289
251 255 256 256 259 263 265 264 260 261 266 262 263 268 266 264 263 267 275 274 270 268 270 270 267 266 267 269 271 271 272 272 272 272 274 276 275 275 276 279 283 284 285 288
254 255 258 258 260 267 268 262 261 263 265 263 263 266 267 266 268 267 273 277 278 272 272 273 269 264 265 267 268 270 273 271 271 272 272 274 273 272 274 278 282 284 284 285
255 256 259 259 262 262 263 260 260 263 263 263 262 262 268 268 269 270 270 275 277 277 276 276 274 269 267 267 266 267 272 271 272 273 272 272 272 271 274 277 281 283 283 282
258 255 257 259 263 262 264 262 261 266 269 269 267 266 266 265 267 271 274 276 275 276 276 276 279 277 268 266 266 268 270 271 271 273 273 272 272 272 273 275 279 280 281 281
265 262 260 261 262 265 266 264 265 267 270 271 269 269 269 267 271 274 275 278 277 278 281 281 282 281 277 273 273 271 272 272 272 271 273 273 272 272 272 274 278 278 279 280
270 265 263 262 264 267 266 267 265 266 269 271 272 271 269 270 274 274 275 279 278 279 282 283 283 283 279 276 276 275 273 273 272 271 271 272 273 272 271 273 274 276 278 281
272 271 267 266 267 268 267 265 265 266 268 270 272 271 271 271 273 276 277 279 277 279 278 279 282 282 280 276 275 274 273 273 272 270 270 270 272 272 271 270 272 274 276 279
273 275 275 272 270 269 266 265 265 268 270 271 273 271 268 269 272 272 273 276 277 279 276 275 278 279 278 276 275 274 273 274 273 271 271 271 271 271 271 270 271 273 275 277
272 273 275 273 271 270 266 265 265 266 268 270 271 272 266 266 270 271 271 272 274 277 275 275 277 278 277 274 273 274 273 273 273 272 271 272 271 271 270 271 271 272 275 276
273 272 273 273 272 270 266 266 268 269 270 272 272 271 266 267 269 269 271 272 273 273 273 275 277 279 277 274 272 272 273 272 272 272 271 270 270 270 270 271 272 273 273 274
276 273 272 271 270 269 268 266 269 270 270 270 274 272 268 269 269 268 270 273 274 271 272 274 277 278 278 276 274 274 274 274 273 272 272 270 270 271 271 271 271 271 272 273
275 273 270 269 268 268 270 269 269 270 271 271 272 269 269 270 269 270 271 273 273 270 271 273 275 277 278 277 277 276 275 274 273 273 272 270 270 270 271 271 270 270 270 271
279 277 273 268 266 268 267 268 271 271 271 273 271 269 269 272 271 271 273 273 273 274 274 274 275 277 276 276 278 278 276 275 275 274 273 271 270 270 271 270 269 269 270 271
280 279 278 274 269 270 274 271 271 272 271 272 272 271 270 271 270 270 272 272 273 273 273 274 276 277 278 278 278 278 277 276 274 274 273 272 270 270 270 270 269 269 269 270
277 277 278 277 274 274 275 277 276 274 273 274 273 273 273 271 271 271 272 271 274 274 275 276 276 277 278 278 278 279 277 276 274 273 274 273 271 270 270 271 272 270 269 269
274 276 279 279 278 279 278 278 279 278 277 277 276 274 273 272 273 272 272 272 274 275 276 278 278 278 279 279 279 279 279 277 275 274 273 272 272 272 271 271 271 270 269 268
276 278 278 278 277 278 280 281 280 280 282 279 278 276 273 271 272 274 274 273 274 276 276 277 278 280 281 280 279 279 279 278 275 275 274 273 272 272 272 271 270 270 270 269
279 279 279 280 279 279 279 279 279 280 281 281 279 278 276 274 274 275 276 277 276 276 277 279 280 281 281 280 279 278 279 279 277 276 274 272 272 273 272 272 272 270 270 270
279 280 281 281 282 281 279 278 278 278 278 280 282 281 280 280 278 278 279 279 278 278 277 277 279 280 280 280 280 280 281 281 280 277 275 274 274 273 273 271 270 271 271 271
280 280 280 281 281 280 279 279 279 278 279 279 281 282 281 281 282 282 282 282 279 277 278 277 278 280 280 280 280 280 281 280 278 277 276 275 275 274 271 270 269 270 269 270
279 280 280 280 281 279 279 279 279 278 278 278 279 280 281 281 281 282 283 283 282 280 279 279 280 281 281 281 280 280 280 279 277 276 275 274 274 274 273 272 271 270 268 269
279 279 279 279 279 279 278 278 278 277 278 279 279 280 280 281 281 282 283 283 283 282 281 281 281 281 281 282 281 280 280 279 276 274 273 273 272 272 273 273 273 271 270 269
Height
5837 5838 5838 5839 5839 5839 5839 5839 5839 5840 5839 5839 5839 5840 5840 5840 5839 5840 5840 5840 5841 5841 5841 5841 5841 5841 5840 5840 5839 5839 5838 5838 5837 5836 5836 5835 5835 5834 5833 5833 5832 5831 5831 5830
5835 5835 5836 5836 5836 5836 5836 5836 5836 5837 5836 5836 5836 5837 5837 5837 5837 5837 5837 5838 5838 5838 5838 5838 5838 5838 5837 5837 5836 5836 5835 5835 5834 5833 5833 5832 5832 5831 5830 5830 5829 5828 5827 5827
5832 5834 5833 5833 5833 5833 5833 5834 5834 5834 5834 5834 5834 5835 5835 5834 5834 5834 5834 5834 5835 5835 5835 5835 5835 5835 5835 5834 5833 5833 5832 5832 5831 5830 5830 5829 5828 5828 5827 5827 5826 5825 5824 5823
5829 5830 5830 5830 5830 5830 5831 5831 5831 5831 5831 5831 5832 5832 5832 5831 5831 5831 5831 5831 5831 5831 5831 5831 5831 5831 5831 5831 5830 5830 5829 5828 5828 5827 5826 5826 5825 5825 5824 5823 5822 5822 5821 5820
5827 5827 5827 5827 5828 5828 5828 5828 5828 5828 5828 5828 5829 5828 5830 5829 5828 5828 5828 5828 5828 5828 5828 5828 5828 5828 5828 5827 5827 5826 5825 5825 5824 5824 5823 5823 5822 5821 5821 5820 5819 5818 5817 5816
5824 5824 5824 5825 5825 5825 5825 5825 5825 5825 5825 5825 5826 5825 5826 5826 5825 5825 5825 5825 5824 5824 5824 5824 5824 5823 5823 5823 5822 5822 5822 5821 5821 5820 5820 5819 5818 5818 5817 5816 5816 5815 5814 5813
5821 5821 5821 5821 5821 5822 5821 5822 5822 5821 5821 5822 5822 5821 5823 5822 5821 5821 5821 5821 5821 5821 5820 5820 5819 5819 5819 5818 5818 5818 5817 5817 5816 5816 5815 5815 5814 5814 5813 5813 5812 5811 5810 5809
5818 5819 5818 5818 5818 5818 5818 5818 5818 5818 5817 5818 5818 5817 5819 5817 5817 5817 5817 5817 5817 5816 5816 5816 5815 5815 5814 5814 5813 5813 5813 5812 5812 5811 5811 5810 5810 5809 5809 5808 5808 5807 5806 5804
5814 5815 5815 5815 5814 5814 5814 5814 5814 5814 5812 5812 5813 5813 5814 5813 5813 5813 5813 5813 5812 5812 5812 5811 5811 5810 5809 5809 5808 5808 5808 5807 5807 5807 5806 5806 5805 5805 5804 5804 5803 5802 5801 5800
5811 5811 5811 5811 5811 5810 5810 5810 5810 5809 5808 5807 5808 5808 5809 5809 5809 5809 5809 5808 5808 5808 5807 5807 5806 5805 5804 5804 5804 5803 5803 5803 5802 5802 5801 5801 5800 5800 5799 5798 5798 5797 5796 5795
5807 5807 5807 5807 5806 5806 5806 5805 5804 5804 5804 5803 5803 5806 5805 5804 5804 5804 5804 5804 5804 5803 5803 5802 5801 5800 5799 5799 5798 5798 5798 5797 5797 5796 5796 5796 5795 5794 5794 5793 5792 5792 5791 5790
5802 5802 5802 5802 5802 5801 5801 5800 5800 5800 5799 5798 5798 5802 5800 5799 5798 5798 5799 5799 5799 5798 5797 5797 5796 5795 5794 5793 5793 5792 5792 5792 5791 5791 5790 5790 5789 5789 5788 5787 5786 5786 5785 5785
5798 5798 5798 5797 5799 5797 5796 5795 5795 5794 5794 5793 5792 5796 5793 5793 5793 5793 5793 5793 5793 5792 5792 5791 5790 5789 5788 5788 5787 5787 5786 5786 5785 5785 5784 5784 5783 5782 5782 5781 5781 5780 5779 5778
5793 5792 5793 5793 5791 5790 5790 5790 5790 5789 5788 5787 5787 5788 5787 5787 5786 5786 5787 5787 5787 5786 5786 5785 5784 5783 5783 5782 5781 5781 5780 5779 5779 5778 5778 5777 5776 5776 5775 5775 5774 5774 5773 5772
5787 5787 5786 5786 5785 5784 5784 5784 5784 5783 5782 5781 5781 5781 5781 5781 5780 5780 5781 5780 5780 5780 5780 5779 5778 5777 5777 5776 5775 5774 5773 5772 5771 5771 5770 5770 5769 5769 5768 5768 5767 5767 5766 5765
5781 5780 5780 5780 5779 5777 5777 5778 5778 5777 5776 5775 5775 5775 5774 5774 5774 5774 5774 5774 5773 5773 5773 5772 5772 5771 5770 5769 5768 5767 5766 5765 5764 5763 5762 5762 5761 5761 5761 5760 5760 5759 5758 5758
5774 5774 5773 5773 5772 5770 5771 5772 5771 5770 5769 5769 5768 5769 5767 5767 5767 5767 5767 5767 5766 5766 5765 5765 5764 5764 5763 5762 5761 5759 5758 5757 5756 5755 5754 5754 5753 5753 5753 5752 5752 5751 5750 5750
5768 5767 5766 5765 5766 5765 5768 5765 5765 5763 5763 5762 5761 5761 5761 5761 5761 5760 5760 5759 5759 5759 5758 5757 5756 5755 5755 5753 5752 5751 5749 5748 5748 5747 5746 5745 5745 5745 5744 5743 5743 5742 5742 5741
5762 5761 5760 5759 5758 5758 5759 5759 5757 5756 5756 5756 5755 5754 5754 5754 5754 5753 5752 5751 5751 5751 5750 5749 5748 5747 5746 5745 5743 5742 5741 5740 5739 5738 5737 5736 5736 5735 5735 5735 5734 5734 5733 5732
5757 5756 5755 5753 5752 5752 5754 5752 5750 5750 5749 5749 5748 5747 5747 5746 5747 5747 5745 5744 5743 5743 5742 5741 5740 5739 5737 5735 5734 5733 5732 5731 5730 5729 5728 5727 5726 5726 5726 5725 5725 5724 5724 5723
5751 5750 5749 5747 5746 5746 5746 5745 5744 5744 5743 5741 5740 5740 5739 5739 5738 5738 5737 5736 5735 5734 5733 5732 5731 5730 5728 5726 5725 5724 5722 5721 5720 5719 5718 5718 5717 5716 5716 5715 5715 5714 5714 5714
5744 5743 5742 5741 5740 5741 5739 5737 5737 5736 5734 5733 5732 5732 5731 5731 5730 5729 5728 5727 5726 5725 5724 5723 5722 5720 5719 5717 5716 5714 5713 5712 5711 5710 5709 5708 5707 5707 5706 5706 5705 5705 5704 5704
5737 5737 5735 5735 5735 5732 5731 5730 5729 5728 5727 5725 5724 5724 5723 5722 5721 5720 5719 5718 5716 5715 5714 5713 5712 5710 5709 5707 5705 5704 5703 5702 5701 5700 5699 5698 5697 5697 5696 5696 5695 5695 5694 5694
5731 5729 5728 5727 5726 5724 5723 5722 5721 5719 5718 5717 5716 5715 5714 5713 5712 5711 5709 5708 5707 5705 5704 5703 5701 5700 5698 5697 5695 5693 5692 5691 5690 5689 5688 5687 5687 5686 5686 5685 5684 5684 5684 5683
5723 5721 5720 5718 5718 5716 5715 5714 5712 5711 5710 5709 5708 5706 5705 5704 5703 5701 5700 5698 5697 5695 5694 5692 5691 5689 5687 5685 5684 5682 5681 5679 5679 5678 5677 5677 5676 5676 5675 5674 5673 5673 5673 5672
5715 5713 5712 5711 5710 5708 5707 5705 5704 5703 5701 5700 5699 5697 5696 5694 5693 5691 5690 5688 5686 5685 5683 5681 5680 5678 5676 5674 5672 5670 5668 5667 5666 5666 5666 5665 5665 5664 5664 5663 5662 5661 5661 5661